Location: Newark
(48.8481°N, 20.9372°E)
Time: 04:39:36
(UTC+00:00)

AO-85 - Visible Passes

Search period start: 02 April 2020 00:00
Search period end: 12 April 2020 00:00
Orbit: 521 x 762 km, 64.8° (Epoch: 12 March)

Date Brightness Start Highest point End Pass type
(mag) Time Alt. Az. Time Alt. Az. Time Alt. Az.
02 Apr ? 18:50:44 10° NNW 18:54:24 36° NE 18:55:30 30° ENE visible
02 Apr ? 20:31:13 10° WNW 20:33:06 22° W 20:33:06 22° W visible
03 Apr ? 19:15:07 10° NW 19:19:03 79° NE 19:19:34 64° ESE visible
03 Apr ? 20:57:00 10° W 20:57:11 10° W 20:57:11 10° W visible
04 Apr ? 17:59:37 10° NNW 18:03:01 27° NE 18:06:05 12° E visible
04 Apr ? 19:39:44 10° NW 19:43:30 44° WSW 19:43:41 44° SW visible
05 Apr ? 18:23:53 10° NNW 18:27:45 53° NE 18:30:15 21° ESE visible
05 Apr ? 20:04:55 10° WNW 20:07:46 19° WSW 20:07:51 19° WSW visible
06 Apr ? 18:48:23 10° NW 18:52:17 68° SW 18:54:28 25° SSE visible
07 Apr ? 19:13:13 10° WNW 19:16:39 28° WSW 19:18:45 18° SSW visible
08 Apr ? 17:57:06 10° NW 18:01:02 81° NE 18:05:04 10° SE visible
08 Apr ? 19:39:05 10° W 19:40:50 13° WSW 19:42:34 10° SW visible
09 Apr ? 18:21:44 10° NW 18:25:29 43° WSW 18:29:20 10° SSE visible
10 Apr ? 18:46:56 10° WNW 18:49:45 19° WSW 18:52:37 10° SSW visible
